Location: Unspecified
(42.9386°N, 0.0000°E)
Time: 21:43:57
(UTC+00:00)

OTV 5 (USA 277) - Visible Passes

Search period start: 17 June 2019 00:00
Search period end: 27 June 2019 00:00
Orbit: 310 x 325 km, 54.5° (Epoch: 08 May)

Date Brightness Start Highest point End Pass type
(mag) Time Alt. Az. Time Alt. Az. Time Alt. Az.
17 Jun ? 01:27:28 10° NNW 01:28:13 11° NNW 01:28:58 10° N visible
18 Jun ? 00:08:19 20° NNW 00:08:19 20° NNW 00:10:22 10° NNE visible
18 Jun ? 03:18:08 10° N 03:18:48 11° NNE 03:19:29 10° NNE visible
18 Jun ? 22:50:36 15° NE 22:50:36 15° NE 22:51:11 10° NE visible
19 Jun ? 00:21:51 10° NW 00:23:13 13° NNW 00:24:35 10° N visible
19 Jun ? 03:32:06 10° NNW 03:33:54 16° NNE 03:35:41 10° ENE visible
19 Jun ? 23:03:08 27° NW 23:03:16 27° NNW 23:05:43 10° NNE visible
20 Jun ? 03:46:26 10° NNW 03:48:52 27° NNE 03:51:17 10° E visible
20 Jun ? 21:42:46 39° SSW 21:43:36 72° SE 21:46:22 10° NE visible
20 Jun ? 23:16:25 10° WNW 23:18:14 16° NNW 23:20:03 10° NNE visible
21 Jun ? 02:27:33 10° N 02:28:55 13° NNE 02:30:16 10° NE visible
21 Jun ? 20:22:32 10° S 20:24:16 15° SE 20:26:01 10° E visible
21 Jun ? 21:55:44 10° WSW 21:58:22 40° NW 22:01:02 10° NE visible
21 Jun ? 23:32:35 10° NNW 23:33:19 11° NNW 23:34:04 10° N visible
22 Jun ? 02:41:46 10° NNW 02:43:57 20° NNE 02:46:06 10° ENE visible
22 Jun ? 20:36:12 10° SSW 20:38:49 41° SE 20:41:28 10° ENE visible
22 Jun ? 22:11:06 10° WNW 22:13:17 20° NNW 22:15:28 10° NNE visible
23 Jun ? 01:23:10 10° N 01:23:55 11° NNE 01:24:38 10° NNE visible
23 Jun ? 02:56:13 10° NW 02:58:52 40° NE 03:01:29 10° ESE visible
23 Jun ? 20:50:47 10° WSW 20:53:31 65° NW 20:56:16 10° NE visible
23 Jun ? 22:26:57 10° NW 22:28:19 13° NNW 22:29:41 10° N visible
24 Jun ? 01:37:11 10° NNW 01:39:00 16° NNE 01:40:48 10° ENE visible
24 Jun ? 03:10:53 10° NW 03:13:37 72° SW 03:16:21 10° SE visible
24 Jun ? 21:05:55 10° W 21:08:21 27° NNW 21:10:49 10° NNE visible
25 Jun ? 01:51:31 10° NNW 01:53:58 28° NNE 01:56:24 10° E visible
25 Jun ? 03:25:56 10° WNW 03:28:15 24° SW 03:30:32 10° S visible
25 Jun ? 21:21:31 10° WNW 21:23:20 16° NNW 21:25:09 10° NNE visible
26 Jun ? 00:32:38 10° NNW 00:34:01 13° NNE 00:35:23 10° NE visible
26 Jun ? 02:06:03 10° NW 02:08:48 67° NE 02:11:32 10° ESE visible
26 Jun ? 21:37:42 10° NNW 21:38:25 11° NNW 21:39:08 10° N visible
